Hourly Data Report for October 06, 2017

All times are specified in Local Standard Time (LST). Add 1 hour to adjust for Daylight Saving Time where and when it is observed.

DEBERT
NOVA SCOTIA

45°25'00.000" N
63°28'00.000" W
37.50 m
8201390
71317
ZDB

Download Data

Hourly Data (October 2017)
Hourly Data Report for October 6, 2017
Temp Definition
°C
Dew Point Temp Definition
°C
Rel Hum Definition
%
Wind Dir Definition
10's deg

Wind Spd Definition
km/h
Visibility Definition
km
Stn Press Definition
kPa
Hmdx Definition


Wind Chill Definition


Weather Definition


TIME
00:00 6.9 5.9 93 6 2   100.93     LegendNANA
01:00 6.7 6.0 95 33 4   100.96     LegendNANA
02:00 6.5 5.5 94 2 2   100.94     LegendNANA
03:00 7.5 6.6 94   0   100.92     LegendNANA
04:00 8.3 7.4 95 28 2   100.93     LegendNANA
05:00 7.7 6.9 95 34 3   100.96     LegendNANA
06:00 7.4 6.6 95 36 3   101.03     LegendNANA
07:00 7.4 6.7 95 0 1   101.09     LegendNANA
08:00 9.2 8.1 93 0 1   101.15     LegendNANA
09:00 10.9 9.2 90 0 1   101.18     LegendNANA
10:00 14.4 10.1 75 23 6   101.19     LegendNANA
11:00 16.2 5.9 50 30 12   101.13     LegendNANA
12:00 16.3 8.2 59 23 14   101.12     LegendNANA
13:00 16.6 8.9 60 24 16   101.15     LegendNANA
14:00 15.2 8.5 65 24 11   101.13     LegendNANA
15:00 15.1 7.9 62 23 13   101.14     LegendNANA
16:00 14.5 7.9 65 25 15   101.14     LegendNANA
17:00 13.6 8.4 71 26 7   101.16     LegendNANA
18:00 10.7 7.4 80 23 4   101.18     LegendNANA
19:00 9.8 7.5 85 26 5   101.25     LegendNANA
20:00 7.7 5.9 88 28 2   101.30     LegendNANA
21:00 7.8 6.1 89 0 1   101.35     LegendNANA
22:00 8.6 7.5 93 28 7   101.44     LegendNANA
23:00 8.7 7.0 89   0   101.50     LegendNANA

Notes on Data Quality.

Legend

  • E = Estimated
  • M = Missing
  • NA = Not Available
  • ‡ = Partner data that is not subject to review by the National Climate Archives
Date modified: